Flag for Germany Weather past 2 weeks in Gera, Thuringia, Germany

Now
61 °F

Fog.


Feels Like: 61 °F
Forecast: 63 / 92 °F
Wind: 2 mph from South

Location: Gera-Leumnitz

Current Time: Aug 30, 2015 at 6:41:59 AM

Latest Report: Aug 30, 2015 at 6:00 AM


Visibility: 3 mi

Pressure: 30.12 "Hg

Humidity: 98%

Dew point: 60 °F

Location of GeraLocation

Historic Weather in Gera — Graph

°F

Gera temperature yesterday

Maximum temperature yesterday: 75 °F (at 5:00 PM)
Minimum temperature yesterday: 53 °F (at 6:00 AM)
Average temperature yesterday: 65 °F

Past Weeks' High & Low Weather Summary

 TemperatureHumidityPressure
High84 °F (Aug 27, 4:00 PM)100% (Aug 19, 7:00 AM)30.31 "Hg (Aug 19, 7:00 AM)
Low48 °F (Aug 22, 6:00 AM)33% (Aug 21, 3:00 PM)29.67 "Hg (Aug 24, 7:00 PM)
Average64 °F78%30.00 "Hg
* Reported Aug 15 5:00 AM — Aug 30 5:00 AM, Gera, Weather by CustomWeather, © 2015

Note: Actual official high and low records may vary slightly from our data, if they occured in-between our weather recording intervals... More about our weather records

Advertising

Gera weather history for previous 24 hours

 ConditionsComfort  
Time TempWeatherWind HumidityBarometerVisibility
5:00 AM
Sun, Aug 30
61 °FFog.2 mph98%30.11 "Hg2 mi
4:00 AM62 °FFog.2 mph98%30.12 "Hg1 mi
3:00 AM61 °FFog.1 mph97%30.14 "Hg3 mi
2:00 AM63 °FFog.1 mph94%30.15 "Hg4 mi
1:00 AM65 °FPassing clouds.1 mph88%30.15 "Hg6 mi
12:00 AM66 °FPassing clouds.1 mph86%30.16 "Hg11 mi
11:00 PM
Sat, Aug 29
68 °FPassing clouds.2 mph80%30.16 "Hg14 mi
10:00 PM68 °FOvercast.3 mph79%30.16 "Hg17 mi
9:00 PM69 °FPassing clouds.3 mph77%30.16 "Hg25 mi
8:00 PM72 °FScattered clouds.2 mph72%30.15 "Hg28 mi
7:00 PM74 °FPartly sunny.3 mph64%30.14 "Hg25 mi
6:00 PM75 °FScattered clouds.2 mph62%30.15 "Hg25 mi
5:00 PM75 °FScattered clouds.2 mph59%30.17 "Hg25 mi
4:00 PM74 °FScattered clouds.2 mph63%30.19 "Hg22 mi
3:00 PM73 °FPartly sunny.2 mph65%30.21 "Hg16 mi
2:00 PM71 °FPartly sunny.2 mph69%30.22 "Hg16 mi
1:00 PM70 °FPartly sunny.3 mph67%30.23 "Hg12 mi
12:00 PM67 °FScattered clouds.3 mph72%30.25 "Hg11 mi
11:00 AM66 °FScattered clouds.3 mph75%30.25 "Hg10 mi
10:00 AM64 °FFog.2 mph85%30.25 "Hg4 mi
9:00 AM59 °FFog.2 mph99%30.26 "Hg1 mi
8:00 AM56 °FFog.1 mph100%30.26 "Hg2 mi
7:00 AM54 °FFog.1 mph100%30.25 "Hg1 mi
6:00 AM53 °FFog.2 mph100%30.24 "Hg0 mi
Weather by CustomWeather, © 2015

See weather overviewHow to use our weather pages